Dallas/Ft Worth, TX

8:25 AM CDT on October 17, 2017 (GMT -0500)
Dallas-Fort Worth International

Weather History for KDFW - March, 2013

Change the Weather History Date:

Sunday, March 3, 2013

  Actual Average Record
Temperature  
Mean Temperature 54 °F 54 °F  
Max Temperature 72 °F 64 °F 94 °F (1902)
Min Temperature 36 °F 44 °F 10 °F (1943)
Degree Days  
Heating Degree Days 11 12  
Month to date heating degree days 52 36  
Since 1 July heating degree days 1642 1968  
Cooling Degree Days 0 1  
Month to date cooling degree days 0 1  
Year to date cooling degree days 12 8  
Growing Degree Days 4 (Base 50)    
Moisture  
Dew Point 29 °F    
Average Humidity 43    
Maximum Humidity 64    
Minimum Humidity 22    
Precipitation  
Precipitation 0.00 in 0.10 in 1.81 in (1981)
Month to date precipitation 0.00 0.32  
Year to date precipitation 5.74 5.11  
Snow  
Snow 0.00 in 0.00 in 1.00 in (2008)
Month to date snowfall 0.0 0.0  
Since 1 July snowfall 0.8 1.4  
Snow Depth 0.00 in    
Sea Level Pressure  
Sea Level Pressure 29.99 in    
Wind  
Wind Speed 17 mph (South)    
Max Wind Speed 31 mph    
Max Gust Speed 37 mph    
Visibility 10 miles    
Events      
T = Trace of Precipitation, MM = Missing Value Source: NWS Daily Summary

Daily Weather History Graph

Daily Weather History Graph

Search for Another Location

Airport or City:

Trip Planner

Search our weather history database for the weather conditions in past years. The results will help you decide how hot, cold, wet, or windy it might be!

Date:

Astronomy

Mar. 03, 2013 Rise Set
Actual Time 6:53 AM CST 6:27 PM CST
Civil Twilight 6:28 AM CST 6:51 PM CST
Nautical Twilight 5:59 AM CST 7:20 PM CST
Astronomical Twilight 5:31 AM CST 7:49 PM CST
Moon No Moon Rise 10:30 AM CST (3/3)
Length of Visible Light 12h 23m
Length of Day
11h 33m
Waning Gibbous, 63% of the Moon is Illuminated
Mar 3
Waning Gibbous
Mar 4
Last Quarter
Mar 11
New
Mar 19
First Quarter
Mar 27
Full

Hourly Weather History & Observations

Time (CST) Temp. Windchill Dew Point Humidity Pressure Visibility Wind Dir Wind Speed Gust Speed Precip Events Conditions
12:53 AM 39.0 °F 34.0 °F 24.1 °F 55% 30.21 in 10.0 mi South 6.9 mph - N/A   Partly Cloudy
1:53 AM 39.0 °F 32.8 °F 25.0 °F 57% 30.22 in 10.0 mi South 9.2 mph - N/A   Partly Cloudy
2:53 AM 37.9 °F 31.5 °F 25.0 °F 60% 30.20 in 10.0 mi South 9.2 mph - N/A   Partly Cloudy
3:53 AM 37.9 °F 32.7 °F 23.0 °F 55% 30.17 in 10.0 mi South 6.9 mph - N/A   Clear
4:53 AM 35.6 °F 29.9 °F 24.8 °F 65% 30.17 in 10.0 mi South 6.9 mph - N/A   Clear
5:53 AM 37.0 °F 31.0 °F 23.0 °F 57% 30.17 in 10.0 mi South 8.1 mph - N/A   Clear
6:53 AM 37.0 °F 31.6 °F 24.1 °F 59% 30.17 in 10.0 mi South 6.9 mph - N/A   Partly Cloudy
7:53 AM 42.1 °F 37.1 °F 25.0 °F 51% 30.15 in 10.0 mi South 8.1 mph - N/A   Partly Cloudy
8:53 AM 50.0 °F - 21.9 °F 33% 30.14 in 10.0 mi South 18.4 mph - N/A   Partly Cloudy
9:53 AM 55.9 °F - 24.1 °F 29% 30.12 in 10.0 mi South 20.7 mph 31.1 mph N/A   Partly Cloudy
10:53 AM 60.1 °F - 26.1 °F 27% 30.10 in 10.0 mi South 21.9 mph - N/A   Partly Cloudy
11:53 AM 63.0 °F - 27.0 °F 26% 30.05 in 10.0 mi South 18.4 mph - N/A   Partly Cloudy
12:53 PM 64.9 °F - 27.0 °F 24% 30.02 in 10.0 mi South 17.3 mph - N/A   Scattered Clouds
1:53 PM 68.0 °F - 28.9 °F 23% 29.96 in 10.0 mi South 21.9 mph - N/A   Mostly Cloudy
2:53 PM 71.1 °F - 30.0 °F 22% 29.91 in 10.0 mi SSE 24.2 mph 31.1 mph N/A   Mostly Cloudy
3:53 PM 71.1 °F - 30.0 °F 22% 29.88 in 10.0 mi South 24.2 mph 31.1 mph N/A   Scattered Clouds
4:53 PM 70.0 °F - 32.0 °F 25% 29.85 in 10.0 mi South 26.5 mph 35.7 mph N/A   Mostly Cloudy
5:53 PM 69.1 °F - 33.1 °F 26% 29.83 in 10.0 mi South 23.0 mph 29.9 mph N/A   Mostly Cloudy
6:53 PM 66.0 °F - 33.1 °F 29% 29.80 in 10.0 mi SSE 18.4 mph 27.6 mph N/A   Mostly Cloudy
7:53 PM 64.9 °F - 34.0 °F 32% 29.79 in 10.0 mi SSE 19.6 mph 27.6 mph N/A   Mostly Cloudy
8:53 PM 64.9 °F - 34.0 °F 32% 29.80 in 10.0 mi South 20.7 mph 27.6 mph N/A   Mostly Cloudy
9:53 PM 64.0 °F - 35.1 °F 34% 29.78 in 10.0 mi South 18.4 mph 27.6 mph N/A   Mostly Cloudy
10:53 PM 63.0 °F - 37.0 °F 38% 29.78 in 10.0 mi South 20.7 mph 31.1 mph N/A   Scattered Clouds
11:53 PM 61.0 °F - 39.0 °F 44% 29.77 in 10.0 mi South 21.9 mph 33.4 mph N/A   Mostly Cloudy